Regional Weather Roundup
Issued by NWS Bismarck, ND

Home | Current Version | Previous Version | Text Only | Print | Product List | Glossary On
Versions: 1 2 3 4 5 6 7 8 9 10 11 12 13 14 15 16 17 18 19 20 21 22 23 24 25 26 27 28 29 30 31 32 33 34 35 36 37 38 39 40 41 42 43 44 45 46 47 48 49 50
000
ASUS43 KBIS 231420
RWRBIS

NWR BROADCAST TEXT
NATIONAL WEATHER SERVICE BISMARCK ND
900 AM CDT THU OCT 23 2014

NOTE: "FAIR" INDICATES FEW OR NO CLOUDS BELOW 12,000 FEET WITH NO
SIGNIFICANT WEATHER AND/OR OBSTRUCTIONS TO VISIBILITY.


CITY           SKY/WX    TMP DP  RH WIND       PRES   REMARKS
WILLISTON      CLEAR     34  31  88 SW3       29.84S
MINOT          CLEAR     44  34  67 S12       29.84R
MINOT AFB      CLEAR     40  34  81 SW5       29.83R
BISMARCK       CLEAR     34  31  88 E3        29.92R
DICKINSON      CLEAR     40  29  64 SW7       29.87S
GARRISON         N/A     38  35  89 S3        29.86S
HETTINGER ARPT CLEAR     33  27  78 CALM      29.93S
JAMESTOWN      CLEAR     43  35  73 W7        29.91R
BEACH            N/A     39  30  70 SW8       29.89S
CARRINGTON     FAIR      41  37  87 SW10      29.90R
CROSBY         MIX PCPN  37  34  87 SW15      29.82R
HARVEY         FAIR      39  34  81 SW8       29.86S
HAZEN          FAIR      32  28  86 SW3       29.89S
LINTON         FAIR      36  36 100 SE9       29.93S
MANDAN         FAIR      43  30  61 S9        29.91S
OAKES            N/A     36  36 100 S8        29.94S
RUGBY          FAIR      41  36  81 S5        29.84S
STANLEY        FAIR      37  32  81 W8        29.84F
TIOGA          FAIR      32  32 100 CALM      29.86F
$$

CITY           SKY/WX    TMP DP  RH WIND       PRES   REMARKS
GRAND FORKS    PTCLDY    43  40  89 SW6       29.86R
GRAND FORKS AF CLEAR     48  42  81 SW10      29.86R
DEVILS LAKE    CLEAR     46  36  66 SW10      29.84S
FARGO          CLEAR     44  40  85 S7        29.92R
CANDO          FAIR      39  37  93 SW6       29.84S
CAVALIER       FAIR      46  39  76 SW12      29.81R
GRAFTON        FAIR      45  41  87 SW9       29.83R
GWINNER        SUNNY     43  39  87 SW14      29.95R
LANGDON        FAIR      41  37  87 SW10      29.82R
ROLLA          FAIR      41  36  81 SW9       29.82S
WALHALLA         N/A     46  41  81 SW7       29.81R
$$

CITY           SKY/WX    TMP DP  RH WIND       PRES   REMARKS
ABERDEEN       PTCLDY    36  33  89 S6        29.98R
MOBRIDGE       CLEAR     41  38  89 CALM      29.93R
BUFFALO          N/A     41  27  57 S3        29.86F
RAPID CITY     PTCLDY    38  24  57 CALM      29.97F
GLASGOW        PTCLDY    38  31  76 E10       29.78F
SIDNEY         PTCLDY    34  30  86 S8        29.86F
WOLF POINT     MOCLDY    29  24  82 CALM      29.82S
GLENDIVE       CLEAR     34  28  80 SE7       29.88S
MILES CITY     PTCLDY    37  27  67 S9        29.88F
BAKER          CLEAR     35  26  69 SE6       29.91S
$$

CITY           SKY/WX    TMP DP  RH WIND       PRES   REMARKS
BILLINGS       CLOUDY    52  23  32 SW14      29.89F
GREAT FALLS    CLOUDY    49  34  56 S9        29.81R
REGINA         MOCLDY    34  32  93 SE8       29.74F
ESTEVAN        MOCLDY    37  34  87 SW9       29.81R
$$




USA.gov is the U.S. government's official web portal to all federal, state and local government web resources and services.